Terminal Aerodrome Forecast
Issued by NWS La Crosse, WI

Home | Current Version | Previous Version | Text Only | Print | Product List | Glossary On
Versions: 1 2 3 4 5 6 7 8 9 10 11 12 13 14 15 16 17 18 19 20 21 22 23 24 25 26 27 28 29 30 31 32 33 34 35 36 37 38 39 40 41 42 43
000
FTUS43 KARX 231120
TAFLSE
TAF
KLSE 231120Z 2312/2412 14005KT 1SM BR VV002
      TEMPO 2312/2314 1/4SM FG
     FM231430 18007KT P6SM SCT040
     FM240700 16005KT P6SM BKN100=

USA.gov is the U.S. government's official web portal to all federal, state and local government web resources and services.